{"data":{"norad_id":65278,"intl_designator":"2025-184F","name":"STARLINK-35000","alt_names":[],"object_type":"PAYLOAD","status":"ACTIVE","operator":null,"country":"US","launch_date":"2025-08-22","launch_site_code":"AFWTR","launch_vehicle":null,"mission":null,"orbit_class":"UNKNOWN","rcs_meters":null,"size_class":null,"mass_kg":null,"dimensions":null,"purposes":["comms"],"wikipedia_slug":null,"has_3d_model":false,"image_url":null,"decayed_at":null,"tle_current":{"epoch":"2026-05-25T03:47:53.892960Z","epoch_age_seconds":55410,"freshness":"FRESH","line1":"1 65278U 25184F   26145.15826265  .00003094  00000+0  21840-3 0  9994","line2":"2 65278  97.4480 197.6151 0000850 160.6270 199.4990 15.05653640 42807","mean_motion":15.0565364,"eccentricity":8.5e-5,"inclination_deg":97.448,"raan_deg":197.6151,"arg_perigee_deg":160.627,"mean_anomaly_deg":199.499,"bstar":0.0002184,"rev_number":4280,"period_min":95.639525701276,"perigee_km":548.91113957844,"apogee_km":550.08883786652,"semimajor_km":6927.6369887225,"source":"CELESTRAK","updated_at":"2026-05-25T13:38:20.730376Z"}}}